Regional Weather Roundup
Issued by NWS State College, PA

Home | Current Version | Previous Version | Text Only | Print | Product List | Glossary Off
Versions: 1 2 3 4 5 6 7 8 9 10 11 12 13 14 15 16 17 18 19 20 21 22 23 24 25 26 27 28 29 30 31 32 33 34 35 36 37 38 39 40 41 42 43 44 45 46 47 48 49 50

773
ASUS41 KCTP 230703
RWRCTP

REGIONAL WEATHER ROUNDUP
NATIONAL WEATHER SERVICE STATE COLLEGE PA
300 AM EDT FRI JUN 23 2017

Note: "fair" indicates few or no clouds below 12,000 feet with no
significant weather and/or obstructions to visibility.

* = STATION THAT DOES NOT REPORT PRECIPITATION /E.G. RAIN...SNOW...ETC/
    THUNDER OR FOG.

PAZ002>004-007>009-013>016-020>023-029>032-230800-
WESTERN PENNSYLVANIA

CITY           SKY/WX    TMP DP  RH WIND       PRES   REMARKS
ERIE           CLEAR     75  68  78 S14       29.77F
MEADVILLE      CLEAR     70  69  97 S7        29.84F
FRANKLIN*      CLEAR     70  64  83 SW9       29.86F
NEW CASTLE     FAIR      72  68  87 S7        29.85F
BEAVER COUNTY  NOT AVBL
BUTLER*        CLOUDY    72  64  78 SW8       29.88F
PITTSBURGH INT CLOUDY    73  67  81 SW13G20   29.87F
PITTSBURGH     PTCLDY    72  65  78 S9        29.88F
INDIANA*       PTCLDY    70  68  94 SW6       29.92F
LATROBE        MOCLDY    73  68  83 S9        29.91F
WASHINGTON CO* CLOUDY    70  64  83 S3        29.91F
$$

PAZ004>006-010>012-017>019-024>028-033>037-041-042-045-046-049>053-230800-
CENTRAL PENNSYLVANIA

CITY           SKY/WX    TMP DP  RH WIND       PRES   REMARKS
BRADFORD       CLOUDY    69  68  96 SW12G17   29.88F
DUBOIS         CLOUDY    69  65  86 SW7       29.88F
CLEARFIELD     CLOUDY    65  65 100 SW5       29.90F FOG
JOHNSTOWN      MOCLDY    69  66  90 SW8       29.94F
ALTOONA        CLOUDY    70  67  90 SW6       29.91F
STATE COLLEGE  CLOUDY    67  65  93 CALM      29.88F
WILLIAMSPORT   MOCLDY    68  67  96 CALM      29.84F
SELINSGROVE    PTCLDY    70  69  97 CALM      29.87F
FT INDIANTOWN  FOG       70  70 100 CALM      29.88F VSB 3/4
CAPITAL CITY   CLOUDY    71  68  90 CALM      29.87F
HARRISBURG     CLOUDY    72  70  93 CALM      29.86F
YORK           CLOUDY    69  69 100 CALM      29.88F
$$

PAZ038>040-043-044-047-048-054-055-060>062-067>071-230800-
EASTERN PENNSYLVANIA

CITY           SKY/WX    TMP DP  RH WIND       PRES   REMARKS
SCRANTON       PTCLDY    73  68  84 CALM      29.86F
MOUNT POCONO   PTCLDY    68  67  96 W5        29.92F
ALLENTOWN      MOCLDY    73  69  87 SW7       29.87F
QUAKERTOWN*    CLOUDY    70  70 100 CALM      29.89F
READING        PTCLDY    73  73 100 CALM      29.87F
LANCASTER      MOCLDY    72  71  97 CALM      29.87F
COATESVILLE    CLOUDY    73  70  88 CALM      29.90F
POTTSTOWN      PTCLDY    73  71  93 CALM      29.89F
BLUE BELL      PTCLDY    72  70  94 CALM      29.88F
DOYLESTOWN     PTCLDY    74  70  87 CALM      29.86F
WILLOW GROVE   NOT AVBL
NORTH PHILA    PTCLDY    79  72  79 CALM      29.87F
PHILADELPHIA   CLOUDY    78  72  81 SW5       29.87F
$$




USA.gov is the U.S. government's official web portal to all federal, state and local government web resources and services.